TimeCDT,TemperatureF,Dew PointF,Humidity,Sea Level PressureIn,VisibilityMPH,Wind Direction,Wind SpeedMPH,Gust SpeedMPH,PrecipitationIn,Events,Conditions,WindDirDegrees,DateUTC
12:15 AM,53.1,53.1,100,30.07,10.0,Calm,Calm,-,N/A,,Clear,0,2013-09-04 05:15:00
12:35 AM,51.8,51.8,100,30.07,10.0,Calm,Calm,-,N/A,,Clear,0,2013-09-04 05:35:00
12:55 AM,52.2,52.2,100,30.07,10.0,Calm,Calm,-,N/A,,Clear,0,2013-09-04 05:55:00
1:15 AM,51.1,51.1,100,30.08,10.0,Calm,Calm,-,N/A,,Clear,0,2013-09-04 06:15:00
1:35 AM,51.8,51.8,100,30.09,10.0,Calm,Calm,-,N/A,,Clear,0,2013-09-04 06:35:00
1:55 AM,52.0,52.0,100,30.09,10.0,Calm,Calm,-,N/A,,Clear,0,2013-09-04 06:55:00
2:15 AM,52.0,52.0,100,30.09,10.0,Calm,Calm,-,N/A,,Clear,0,2013-09-04 07:15:00
2:35 AM,52.7,52.7,100,30.10,10.0,Calm,Calm,-,N/A,,Clear,0,2013-09-04 07:35:00
2:55 AM,52.7,52.7,100,30.10,10.0,Calm,Calm,-,N/A,,Clear,0,2013-09-04 07:55:00
3:15 AM,52.2,52.2,100,30.10,10.0,Calm,Calm,-,N/A,,Clear,0,2013-09-04 08:15:00
3:35 AM,51.8,51.8,100,30.11,10.0,Calm,Calm,-,N/A,,Clear,0,2013-09-04 08:35:00
3:55 AM,51.1,51.1,100,30.11,10.0,Calm,Calm,-,N/A,,Clear,0,2013-09-04 08:55:00
4:15 AM,50.0,50.0,100,30.11,5.0,Calm,Calm,-,N/A,,Clear,0,2013-09-04 09:15:00
4:35 AM,50.0,50.0,100,30.11,10.0,Calm,Calm,-,N/A,,Clear,0,2013-09-04 09:35:00
4:55 AM,50.0,50.0,100,30.11,3.0,Calm,Calm,-,N/A,,Clear,0,2013-09-04 09:55:00
5:15 AM,49.3,49.3,100,30.12,10.0,Calm,Calm,-,N/A,,Clear,0,2013-09-04 10:15:00
5:35 AM,49.3,49.3,100,30.12,2.0,Calm,Calm,-,N/A,,Clear,0,2013-09-04 10:35:00
5:55 AM,49.6,49.6,100,30.13,4.0,Calm,Calm,-,N/A,,Clear,0,2013-09-04 10:55:00
6:15 AM,48.6,48.6,100,30.13,7.0,Calm,Calm,-,N/A,,Clear,0,2013-09-04 11:15:00
6:35 AM,47.1,47.1,100,30.14,10.0,Calm,Calm,-,N/A,,Clear,0,2013-09-04 11:35:00
6:55 AM,48.0,48.0,100,30.14,7.0,Calm,Calm,-,N/A,,Clear,0,2013-09-04 11:55:00
7:15 AM,50.9,50.9,100,30.14,10.0,Calm,Calm,-,N/A,,Clear,0,2013-09-04 12:15:00
7:35 AM,54.3,54.3,100,30.14,10.0,Calm,Calm,-,N/A,,Clear,0,2013-09-04 12:35:00
7:55 AM,57.4,55.2,92,30.15,10.0,Calm,Calm,-,N/A,,Clear,0,2013-09-04 12:55:00
8:15 AM,61.2,57.6,88,30.15,10.0,Calm,Calm,-,N/A,,Clear,0,2013-09-04 13:15:00
8:35 AM,63.9,59.0,84,30.15,10.0,Calm,Calm,-,N/A,,Clear,0,2013-09-04 13:35:00
8:55 AM,66.9,60.1,79,30.15,10.0,Calm,Calm,-,N/A,,Clear,0,2013-09-04 13:55:00
9:15 AM,69.3,60.1,72,30.15,10.0,West,4.6,-,N/A,,Clear,270,2013-09-04 14:15:00
9:35 AM,71.1,59.9,68,30.16,10.0,West,4.6,-,N/A,,Clear,270,2013-09-04 14:35:00
9:55 AM,73.2,60.3,64,30.16,10.0,WNW,3.5,-,N/A,,Clear,300,2013-09-04 14:55:00
10:15 AM,74.3,58.6,58,30.16,10.0,WNW,4.6,-,N/A,,Clear,300,2013-09-04 15:15:00
10:35 AM,76.5,57.7,52,30.16,10.0,West,4.6,-,N/A,,Clear,280,2013-09-04 15:35:00
10:55 AM,76.8,56.8,50,30.17,10.0,West,4.6,-,N/A,,Clear,270,2013-09-04 15:55:00
11:15 AM,77.9,54.9,45,30.16,10.0,WNW,5.8,-,N/A,,Clear,300,2013-09-04 16:15:00
11:35 AM,78.1,54.9,45,30.16,10.0,Calm,Calm,-,N/A,,Clear,0,2013-09-04 16:35:00
11:55 AM,78.6,55.0,44,30.16,10.0,WSW,3.5,-,N/A,,Clear,250,2013-09-04 16:55:00
12:15 PM,79.5,55.8,44,30.16,10.0,WNW,5.8,-,N/A,,Clear,290,2013-09-04 17:15:00
12:35 PM,80.6,54.3,40,30.16,10.0,Calm,Calm,-,N/A,,Clear,0,2013-09-04 17:35:00
12:55 PM,80.8,54.0,39,30.16,10.0,Calm,Calm,-,N/A,,Clear,0,2013-09-04 17:55:00
1:15 PM,82.0,55.0,39,30.16,10.0,West,5.8,-,N/A,,Clear,270,2013-09-04 18:15:00
1:35 PM,81.9,56.5,42,30.16,10.0,West,5.8,-,N/A,,Clear,260,2013-09-04 18:35:00
1:55 PM,82.2,56.7,41,30.15,10.0,Calm,Calm,-,N/A,,Clear,0,2013-09-04 18:55:00
2:15 PM,82.8,56.7,41,30.14,10.0,NNW,4.6,-,N/A,,Clear,330,2013-09-04 19:15:00
2:35 PM,82.9,56.5,40,30.14,10.0,NW,3.5,-,N/A,,Clear,310,2013-09-04 19:35:00
2:55 PM,83.5,55.2,38,30.13,10.0,Calm,Calm,-,N/A,,Clear,0,2013-09-04 19:55:00
3:15 PM,83.3,55.8,39,30.12,10.0,Calm,Calm,-,N/A,,Clear,0,2013-09-04 20:15:00
3:35 PM,84.0,55.2,37,30.12,10.0,NNW,4.6,-,N/A,,Clear,330,2013-09-04 20:35:00
3:55 PM,83.8,56.7,39,30.12,10.0,WNW,4.6,-,N/A,,Clear,290,2013-09-04 20:55:00
4:15 PM,84.2,56.8,39,30.11,10.0,West,4.6,-,N/A,,Clear,260,2013-09-04 21:15:00
4:35 PM,83.1,57.2,41,30.11,10.0,West,4.6,-,N/A,,Clear,280,2013-09-04 21:35:00
4:55 PM,83.5,57.9,42,30.11,10.0,West,4.6,-,N/A,,Clear,270,2013-09-04 21:55:00
5:15 PM,83.5,58.1,42,30.11,10.0,Calm,Calm,-,N/A,,Clear,0,2013-09-04 22:15:00
5:35 PM,82.8,58.1,43,30.11,10.0,Calm,Calm,-,N/A,,Clear,0,2013-09-04 22:35:00
5:55 PM,81.9,58.1,44,30.11,10.0,Calm,Calm,-,N/A,,Clear,0,2013-09-04 22:55:00
6:15 PM,81.1,62.2,52,30.11,10.0,Calm,Calm,-,N/A,,Clear,0,2013-09-04 23:15:00
6:35 PM,78.6,62.4,57,30.11,10.0,Calm,Calm,-,N/A,,Clear,0,2013-09-04 23:35:00
6:55 PM,76.3,65.3,69,30.10,10.0,Calm,Calm,-,N/A,,Clear,0,2013-09-04 23:55:00
7:15 PM,74.1,63.7,70,30.10,10.0,Calm,Calm,-,N/A,,Clear,0,2013-09-05 00:15:00
7:35 PM,71.2,62.1,73,30.11,10.0,Calm,Calm,-,N/A,,Clear,0,2013-09-05 00:35:00
7:55 PM,70.5,63.0,77,30.11,10.0,Calm,Calm,-,N/A,,Clear,0,2013-09-05 00:55:00
8:15 PM,67.6,62.2,83,30.11,10.0,Calm,Calm,-,N/A,,Clear,0,2013-09-05 01:15:00
8:35 PM,69.4,62.1,77,30.12,10.0,Calm,Calm,-,N/A,,Clear,0,2013-09-05 01:35:00
8:55 PM,66.6,62.1,85,30.12,10.0,Calm,Calm,-,N/A,,Clear,0,2013-09-05 01:55:00
9:15 PM,66.6,61.3,83,30.13,10.0,Calm,Calm,-,N/A,,Clear,0,2013-09-05 02:15:00
9:35 PM,64.6,61.3,89,30.13,10.0,Calm,Calm,-,N/A,,Clear,0,2013-09-05 02:35:00
9:55 PM,63.5,60.8,91,30.13,10.0,Calm,Calm,-,N/A,,Clear,0,2013-09-05 02:55:00
10:15 PM,63.1,60.8,92,30.13,10.0,Calm,Calm,-,N/A,,Clear,0,2013-09-05 03:15:00
10:35 PM,62.8,60.4,92,30.13,10.0,Calm,Calm,-,N/A,,Clear,0,2013-09-05 03:35:00
10:55 PM,62.4,59.9,91,30.13,10.0,Calm,Calm,-,N/A,,Clear,0,2013-09-05 03:55:00
11:15 PM,60.8,59.4,95,30.13,10.0,Calm,Calm,-,N/A,,Clear,0,2013-09-05 04:15:00
11:35 PM,60.8,59.7,96,30.14,10.0,South,3.5,-,N/A,,Clear,190,2013-09-05 04:35:00
11:55 PM,61.0,59.4,94,30.14,10.0,South,3.5,-,N/A,,Clear,190,2013-09-05 04:55:00